Tracking 17780 objects as of 29-July-2016
HD Live streaming from Space Station
objects crossing your sky now

GLOBALSTAR M042

Track GLOBALSTAR M042 now!
10-day predictions
GLOBALSTAR M042 is classified as:


NORAD ID: 25679
Int'l Code: 1999-019D
Perigee: 1,588.7 km
Apogee: 1,593.4 km
Inclination: 52.0 °
Period: 117.8 minutes
Semi major axis: 7962 km
RCS: 2.3601 m2 (large)
Launch date: April 15, 1999
Source: Globalstar (GLOB)
Launch site: TYURATAM MISSILE AND SPACE COMPLEX (TTMTR)
Your satellite tracking list
Your tracking list is empty





NASA's NSSDC Master Catalog

Two Line Element Set (TLE):
1 25679U 99019D   16211.42932498 -.00000056  00000-0  33819-3 0  9998
2 25679  51.9986 210.0212 0002969 116.3053  49.9023 12.21991128788626
Source of the keplerian elements: AFSPC

N2YO: 931